カタログに戻る

COSMOS 1795

運用中軍事LEO
NORAD 17139·PAYLOAD·🇷🇺 Russia

打ち上げ Nov 21, 1986 から Plesetsk Cosmodrome

Loading…

次のパス (今後24時間)

TLE

最新Source: Space-Track

元期: Sep 14, 2026, 12:31 UTC

1 17139U 86092B   26257.52177372 -.00000021  00000-0 -32778-4 0  9998
2 17139  74.0108 276.3990 0009290  64.2512  89.3713 12.47817039813688

AllMySatでCOSMOS 1795をリアルタイム追跡

Download on the App Store